Regional Weather Roundup
Issued by NWS

Home | Current Version | Previous Version | Graphics & Text | Print | Product List | Glossary On
Versions: 1 2 3 4 5 6 7 8 9 10 11 12 13 14 15 16 17 18 19 20 21 22 23 24 25 26 27 28 29 30 31 32 33 34 35 36 37 38 39 40 41 42 43 44 45 46 47 48 49 50
000
ASUS43 KIND 262059
RWRIN

WEATHER ROUNDUP FOR INDIANA
NATIONAL WEATHER SERVICE INDIANAPOLIS IN
500 PM EDT FRI MAY 26 2017

NOTE: "FAIR" INDICATES FEW OR NO CLOUDS BELOW 12,000 FEET WITH NO
SIGNIFICANT WEATHER AND/OR OBSTRUCTIONS TO VISIBILITY.

* - STATION DOES NOT REPORT WEATHER SUCH AS PRECIPITATION OR FOG.

+ - STATION NOT QUALITY CONTROLLED BY THE NATIONAL WEATHER SERVICE.
    USE DATA WITH CAUTION...ESPECIALLY DEWPOINT AND RELATIVE
    HUMIDITY OBSERVATIONS.

INZ001>003-010>013-019-020-262200-
NORTHWEST INDIANA

CITY           SKY/WX    TMP DP  RH WIND       PRES   REMARKS
GARY /AIRPORT/ CLOUDY    66  52  59 E14       29.81F
MICHIGAN CITY+ CLOUDY    70  54  56 SE3       29.84R
MONTICELLO +   PTSUNNY   74  56  53 E3        29.79F
RENSSELAER +   CLOUDY    73  54  49 E13       29.77F

$$

LMZ046-743>745-262200-
SOUTHERN LAKE MICHIGAN

STATION/POSITION TIME  TEMP    WIND        PRES    WAVE
                       AIR SEA DIR/SP/G            HT
                 (UTC) (F)     (DEG/KT/KT) (MB)    (FT)
BURNS HARBOR     2040   58      80/ 12/ 14 1010.5S
MICHIGAN CITY    2030   56      30/  9/ 10   N/A
5NW MICH CITY    2050   54 54   50/  8/ 10   N/A     1

$$

INZ004-005-014>016-021>024-262200-
NORTH CENTRAL INDIANA

CITY           SKY/WX    TMP DP  RH WIND       PRES   REMARKS
ELKHART        MOSUNNY   72  54  53 CALM      29.83F
GOSHEN         CLOUDY    72  52  49 S5        29.84F
SOUTH BEND     PTSUNNY   69  54  58 SE7       29.85F

$$

INZ006>009-017-018-025>027-262200-
NORTHEAST INDIANA

CITY           SKY/WX    TMP DP  RH WIND       PRES   REMARKS
FORT WAYNE     CLOUDY    70  56  61 SW7       29.87S
KENDALLVILLE + CLOUDY    70  54  56 W3        29.87S

$$

INZ028-029-035-036-043>045-051>053-262200-
WEST CENTRAL INDIANA

CITY           SKY/WX    TMP DP  RH WIND       PRES   REMARKS
CRAWFORDSVL +  CLOUDY    74  61  63 SE10      29.81F
GREENCASTLE +  CLOUDY    75  61  60 S7        29.81F
LAFAYETTE      CLOUDY    74  60  61 SE8       29.78F
TERRE HAUTE    PTSUNNY   80  64  58 S12       29.78F

$$

INZ030>032-037>040-046>048-054>057-064-065-262200-
CENTRAL INDIANA

CITY           SKY/WX    TMP DP  RH WIND       PRES   REMARKS
COLUMBUS       PTSUNNY   75  55  50 S9G20     29.84F
GREENWOOD *+   CLOUDY    76  58  53 S8        29.84F
INDIANAPOLIS   CLOUDY    76  60  57 S10       29.82F
-EAGLE CREEK   PTSUNNY   78  58  49 S7        29.82F
KOKOMO +       MOSUNNY   75  60  59 S7        29.85S
SHELBYVILLE    MOSUNNY   80  58  46 S10       29.83F

$$

INZ033-034-041-042-049-050-058-059-262200-
EAST CENTRAL INDIANA

CITY           SKY/WX    TMP DP  RH WIND       PRES   REMARKS
MUNCIE         MOSUNNY   76  57  51 S7        29.86R
RICHMOND +     SUNNY     73  55  53 SW9       29.87F

$$

INZ060-061-067>069-081>083-085>088-262200-
SOUTHWEST INDIANA

CITY           SKY/WX    TMP DP  RH WIND       PRES   REMARKS
EVANSVILLE     MOSUNNY   85  58  39 S15       29.80F
HUNTINGBURG *+ CLOUDY    79  61  53 S13G21    29.82F

$$

INZ062-063-066-070>080-084-089>092-262200-
SOUTH CENTRAL AND SOUTHEAST INDIANA

CITY           SKY/WX    TMP DP  RH WIND       PRES   REMARKS
BLOOMINGTON    SUNNY     81  63  54 S10       29.81F
MADISON *+     SUNNY     79  59  50 S8        29.87F
SEYMOUR +      MOSUNNY   81  61  50 SE8G17    29.82F

$$





USA.gov is the U.S. government's official web portal to all federal, state and local government web resources and services.